TimePST,TemperatureF,Dew PointF,Humidity,Sea Level PressureIn,VisibilityMPH,Wind Direction,Wind SpeedMPH,Gust SpeedMPH,PrecipitationIn,Events,Conditions,WindDirDegrees,DateUTC
12:37 AM,30.2,26.6,86,29.95,10.0,West,8.1,-,N/A,,Overcast,280,2013-01-26 08:37:00
12:53 AM,30.9,28.0,89,29.98,10.0,WNW,8.1,-,N/A,,Overcast,290,2013-01-26 08:53:00
1:53 AM,30.9,28.0,89,29.97,10.0,West,4.6,-,N/A,,Overcast,280,2013-01-26 09:53:00
2:53 AM,30.9,28.0,89,29.96,10.0,WNW,8.1,-,N/A,,Overcast,300,2013-01-26 10:53:00
3:53 AM,30.9,27.0,85,29.95,10.0,NW,8.1,-,N/A,,Overcast,310,2013-01-26 11:53:00
4:53 AM,28.9,27.0,92,29.96,10.0,SSW,5.8,-,N/A,,Overcast,200,2013-01-26 12:53:00
5:01 AM,28.4,26.6,93,29.92,10.0,SSW,6.9,-,N/A,,Overcast,210,2013-01-26 13:01:00
5:53 AM,28.9,27.0,92,29.96,10.0,SW,6.9,-,N/A,,Overcast,220,2013-01-26 13:53:00
6:53 AM,28.9,27.0,92,29.96,8.0,SW,5.8,-,N/A,,Overcast,230,2013-01-26 14:53:00
7:53 AM,28.9,27.0,92,29.97,6.0,SW,6.9,-,N/A,,Overcast,220,2013-01-26 15:53:00
8:53 AM,28.9,28.0,96,29.97,3.0,SW,4.6,-,N/A,,Overcast,220,2013-01-26 16:53:00
9:14 AM,28.4,28.4,100,29.94,2.5,SSW,5.8,-,N/A,,Overcast,210,2013-01-26 17:14:00
9:35 AM,30.2,28.4,93,29.94,1.8,SW,5.8,-,0.00,Snow,Light Snow,220,2013-01-26 17:35:00
9:53 AM,30.0,28.9,96,29.99,1.8,SW,4.6,-,0.00,Snow,Light Snow,230,2013-01-26 17:53:00
10:00 AM,30.2,28.4,93,29.94,2.0,SSW,3.5,-,0.00,Snow,Light Snow,210,2013-01-26 18:00:00
10:08 AM,30.2,28.4,93,29.94,1.5,SW,4.6,-,0.00,Snow,Light Snow,220,2013-01-26 18:08:00
10:25 AM,30.2,28.4,93,29.94,2.0,Calm,Calm,-,0.00,Snow,Light Snow,0,2013-01-26 18:25:00
10:35 AM,30.2,28.4,93,29.94,2.5,WSW,3.5,-,0.00,Snow,Light Snow,240,2013-01-26 18:35:00
10:45 AM,30.2,28.4,93,29.94,2.5,SSW,3.5,-,0.00,Snow,Light Snow,200,2013-01-26 18:45:00
10:53 AM,30.9,28.0,89,29.98,2.0,Calm,Calm,-,0.00,Snow,Light Snow,0,2013-01-26 18:53:00
11:06 AM,30.2,28.4,93,29.94,4.0,SW,3.5,-,0.00,,Overcast,220,2013-01-26 19:06:00
11:27 AM,30.2,28.4,93,29.94,9.0,Calm,Calm,-,0.00,,Overcast,0,2013-01-26 19:27:00
11:53 AM,32.0,28.0,85,29.97,10.0,Calm,Calm,-,0.00,,Overcast,0,2013-01-26 19:53:00
12:16 PM,30.2,28.4,93,29.93,10.0,SSE,3.5,-,N/A,,Overcast,160,2013-01-26 20:16:00
12:53 PM,30.9,28.0,89,29.96,10.0,Calm,Calm,-,N/A,,Overcast,0,2013-01-26 20:53:00
1:48 PM,32.0,26.6,80,29.91,10.0,Calm,Calm,-,N/A,,Overcast,0,2013-01-26 21:48:00
1:53 PM,32.0,28.0,85,29.95,10.0,SSW,26.5,29.9,N/A,,Overcast,210,2013-01-26 21:53:00
2:02 PM,32.0,28.4,87,29.91,10.0,ESE,3.5,32.2,N/A,,Overcast,120,2013-01-26 22:02:00
2:53 PM,30.9,28.0,89,29.96,10.0,ESE,4.6,-,N/A,,Overcast,120,2013-01-26 22:53:00
3:53 PM,30.9,28.0,89,29.96,10.0,SE,4.6,-,N/A,,Overcast,130,2013-01-26 23:53:00
4:53 PM,30.9,28.0,89,29.96,10.0,Calm,Calm,-,N/A,,Overcast,0,2013-01-27 00:53:00
5:53 PM,30.9,28.0,89,29.98,10.0,Calm,Calm,-,N/A,,Overcast,0,2013-01-27 01:53:00
6:53 PM,30.9,28.0,89,29.98,10.0,East,3.5,-,N/A,,Overcast,90,2013-01-27 02:53:00
7:53 PM,30.0,28.0,92,29.99,10.0,Calm,Calm,-,N/A,,Overcast,0,2013-01-27 03:53:00
8:53 PM,30.0,28.0,92,29.99,10.0,SSE,3.5,-,N/A,,Overcast,150,2013-01-27 04:53:00
9:53 PM,30.0,27.0,88,30.01,10.0,Calm,Calm,-,N/A,,Overcast,0,2013-01-27 05:53:00
10:53 PM,30.0,28.0,92,30.01,10.0,Calm,Calm,-,N/A,,Overcast,0,2013-01-27 06:53:00
11:53 PM,30.0,27.0,88,30.02,10.0,South,4.6,-,N/A,,Overcast,190,2013-01-27 07:53:00